This is the latest recevied weather packets stored in our database for station/object KD2DXJ. If no packets are shown the sender has not sent any weather packets the latest 10 day(s).
| Time | Temp. | Humidity | Pressure | Rain* | Wind** | Luminosity | Snow |
|---|---|---|---|---|---|---|---|
| 1777742940 | 6.67° C | 74% | 1012.2 hPa | 0 mm | - | 219 W/m² | - |
| 1777742636 | 6.67° C | 75% | 1012.3 hPa | 0 mm | - | 202 W/m² | - |
| 1777742332 | 6.67° C | 74% | 1012.1 hPa | 0 mm | - | 193 W/m² | - |
| 1777742029 | 7.22° C | 72% | 1012.3 hPa | 0 mm | - | 208 W/m² | - |
| 1777741726 | 6.67° C | 74% | 1012.3 hPa | 0 mm | - | 235 W/m² | - |
| 1777741423 | 6.67° C | 74% | 1012.2 hPa | 0 mm | - | 191 W/m² | - |
| 1777741118 | 6.67° C | 74% | 1012.2 hPa | 0 mm | - | 243 W/m² | - |
| 1777740816 | 6.67° C | 73% | 1012.3 hPa | 0 mm | - | 272 W/m² | - |
| 1777740513 | 6.67° C | 72% | 1012.4 hPa | 0 mm | - | 237 W/m² | - |
| 1777740210 | 6.67° C | 75% | 1012.2 hPa | 0 mm | - | 199 W/m² | - |
| 1777739906 | 6.11° C | 72% | 1012.3 hPa | 0 mm | - | 153 W/m² | - |
| 1777739602 | 6.11° C | 74% | 1012.3 hPa | 0 mm | - | 132 W/m² | - |
| 1777739300 | 6.11° C | 75% | 1012.3 hPa | 0 mm | - | 93 W/m² | - |
| 1777738996 | 6.11° C | 73% | 1012.4 hPa | 0 mm | - | 66 W/m² | - |
| 1777738693 | 6.67° C | 72% | 1012.4 hPa | 0 mm | - | 80 W/m² | - |
| 1777738389 | 6.67° C | 71% | 1012.3 hPa | 0 mm | - | 147 W/m² | - |
| 1777738087 | 7.22° C | 73% | 1012.4 hPa | 0 mm | - | 165 W/m² | - |
| 1777737786 | 6.67° C | 68% | 1012.2 hPa | 0 mm | - | 94 W/m² | - |
| 1777737485 | 7.22° C | 67% | 1012.4 hPa | 0 mm | - | 140 W/m² | - |
| 1777737182 | 6.67° C | 66% | 1012.5 hPa | 0 mm | - | 110 W/m² | - |
| 1777736877 | 7.22° C | 68% | 1012.5 hPa | 0 mm | - | 139 W/m² | - |
| 1777736264 | 7.78° C | 66% | 1012.4 hPa | 0 mm | - | 153 W/m² | - |
| 1777735960 | 8.33° C | 68% | 1012.5 hPa | 0 mm | - | 184 W/m² | - |
| 1777735658 | 8.89° C | 67% | 1012.5 hPa | 0 mm | - | 551 W/m² | - |
| 1777735355 | 8.33° C | 65% | 1012.3 hPa | 0 mm | - | 750 W/m² | - |
* Rain latest hour (hover to see other rain measurements)
** Current wind speed in m/s (hover to see current wind gust speed)